Flag for Liberia Weather past 2 weeks in Gbarnga, Liberia

Now
84 °F

Sunny.


Feels Like: 83 °F
Forecast: 59 / 87 °F
Wind: 13 mph from East

Location: Roberts Field

Current Time: Dec 29, 2014 at 11:03:02 AM

Latest Report: Dec 29, 2014 at 10:30 AM


Visibility: 6 mi

Pressure: 29.95 "Hg

Humidity: 40%

Dew point: 57 °F

Location of GbarngaLocation

Historic Weather in Gbarnga — Graph

°F

Gbarnga temperature yesterday

Maximum temperature yesterday: 90 °F (at 1:00 PM)
Minimum temperature yesterday: 72 °F (at 6:30 AM)
Average temperature yesterday: 80 °F

Past Weeks' High & Low Weather Summary

 TemperatureHumidityPressure
High91 °F (Dec 23, 2:00 PM)100% (Dec 17, 6:00 AM)30.01 "Hg (Dec 17, 6:00 AM)
Low68 °F (Dec 29, 6:30 AM)18% (Dec 28, 7:03 AM)29.80 "Hg (Dec 16, 3:30 PM)
Average81 °F82%29.90 "Hg
* Reported Dec 14 10:30 AM — Dec 29 10:00 AM, Gbarnga, Weather by CustomWeather, © 2014

Note: Actual official high and low records may vary slightly from our data, if they occured in-between our weather recording intervals... More about our weather records

Advertising

Gbarnga weather history for previous 24 hours

 ConditionsComfort  
Time TempWeatherWind HumidityBarometerVisibility
10:00 AM
Dec 29
82 °FSunny.6 mph55%29.95 "Hg6 mi
9:30 AM79 °FSunny.7 mph65%29.95 "Hg6 mi
9:00 AM75 °FSunny.8 mph74%29.98 "Hg6 mi
8:30 AM73 °FPassing clouds.8 mph78%29.98 "HgN/A
8:00 AM70 °FPassing clouds.5 mph83%29.95 "HgN/A
7:30 AM68 °FPassing clouds.5 mph88%29.92 "HgN/A
7:00 AM68 °FPassing clouds.5 mph88%29.92 "HgN/A
6:30 AM68 °FPassing clouds.5 mph83%29.92 "Hg6 mi
6:00 AM70 °FClear.6 mph83%29.89 "Hg6 mi
5:30 AM70 °FClear.6 mph83%29.89 "Hg6 mi
5:00 AM70 °FPassing clouds.7 mph83%29.89 "Hg6 mi
4:00 AM70 °FPassing clouds.5 mph83%29.89 "Hg6 mi
3:00 AM70 °FPassing clouds.6 mph88%29.89 "Hg6 mi
1:00 AM73 °FPassing clouds.No wind89%29.92 "Hg5 mi
12:30 AM73 °FPassing clouds.No wind89%29.92 "Hg5 mi
12:00 AM73 °FPassing clouds.No wind89%29.92 "Hg5 mi
11:30 PM
Dec 28
73 °FPassing clouds.No wind89%29.92 "Hg6 mi
11:00 PM73 °FPassing clouds.No wind89%29.92 "Hg6 mi
10:30 PM75 °FPassing clouds.No wind94%29.92 "Hg6 mi
9:00 PM75 °FPassing clouds.No wind94%29.92 "Hg6 mi
8:30 PM77 °FPassing clouds.No wind94%29.89 "Hg6 mi
8:00 PM79 °FPassing clouds.No wind84%29.89 "Hg6 mi
6:30 PM82 °FPassing clouds.No wind74%29.86 "Hg6 mi
6:00 PM86 °FPassing clouds.3 mph66%29.83 "Hg6 mi
5:30 PM88 °FPassing clouds.3 mph55%29.83 "HgN/A
5:00 PM88 °FPassing clouds.6 mph55%29.83 "HgN/A
4:30 PM88 °FPassing clouds.6 mph52%29.83 "HgN/A
4:00 PM90 °FPassing clouds.7 mph46%29.83 "HgN/A
3:30 PM90 °FScattered clouds.6 mph46%29.83 "HgN/A
3:00 PM90 °FScattered clouds.5 mph46%29.83 "HgN/A
2:30 PM90 °FPassing clouds.7 mph46%29.83 "HgN/A
2:00 PM90 °FPassing clouds.5 mph46%29.83 "HgN/A
1:30 PM90 °FPassing clouds.9 mph49%29.86 "HgN/A
1:00 PM90 °FPassing clouds.6 mph46%29.86 "HgN/A
12:30 PM88 °FScattered clouds.14 mph52%29.89 "HgN/A
12:00 PM86 °FScattered clouds.6 mph66%29.89 "HgN/A
11:30 AM84 °FScattered clouds.12 mph74%29.92 "HgN/A
11:00 AM82 °FPassing clouds.9 mph79%29.92 "HgN/A
Weather by CustomWeather, © 2014

See weather overviewHow to use our weather pages